Precipitable_Water
0.15 0.16 0.18 0.21 0.22 0.21 0.22 0.23 0.24 0.25 0.25 0.23 0.22 0.20 0.20 0.19 0.18 0.16 0.16 0.17 0.18 0.19 0.19 0.17 0.18 0.19 0.21 0.22 0.25 0.25 0.26 0.25 0.24 0.24 0.31 0.45 0.55 0.62 0.67 0.70 0.72 0.74 0.74 0.76 0.82 0.87 0.96 1.02 1.04 1.07 1.08 1.11
0.15 0.15 0.17 0.20 0.19 0.19 0.20 0.21 0.22 0.23 0.23 0.21 0.20 0.18 0.18 0.18 0.17 0.16 0.15 0.15 0.16 0.18 0.17 0.16 0.16 0.17 0.20 0.21 0.22 0.24 0.25 0.22 0.21 0.23 0.23 0.29 0.44 0.54 0.59 0.66 0.71 0.71 0.70 0.70 0.77 0.82 0.89 0.96 1.01 1.03 1.05 1.06
0.16 0.16 0.17 0.18 0.17 0.18 0.19 0.20 0.20 0.21 0.20 0.19 0.18 0.17 0.17 0.17 0.16 0.16 0.16 0.15 0.15 0.17 0.16 0.15 0.15 0.16 0.18 0.20 0.21 0.22 0.23 0.21 0.20 0.22 0.23 0.23 0.25 0.36 0.51 0.60 0.65 0.68 0.69 0.70 0.71 0.79 0.82 0.90 0.96 1.00 1.02 1.03
0.16 0.16 0.16 0.16 0.16 0.17 0.18 0.18 0.19 0.19 0.18 0.17 0.17 0.16 0.16 0.15 0.16 0.16 0.16 0.16 0.15 0.16 0.16 0.15 0.15 0.15 0.17 0.19 0.20 0.19 0.22 0.18 0.18 0.21 0.22 0.21 0.22 0.24 0.27 0.41 0.57 0.64 0.68 0.69 0.69 0.71 0.80 0.83 0.89 0.95 0.99 1.00
0.17 0.16 0.15 0.16 0.16 0.17 0.18 0.18 0.18 0.18 0.17 0.17 0.16 0.16 0.16 0.15 0.16 0.16 0.15 0.16 0.15 0.16 0.17 0.15 0.14 0.15 0.15 0.17 0.18 0.17 0.19 0.16 0.16 0.19 0.20 0.19 0.21 0.20 0.20 0.21 0.40 0.57 0.64 0.67 0.69 0.69 0.68 0.74 0.80 0.88 0.94 0.98
0.18 0.17 0.16 0.15 0.16 0.17 0.17 0.18 0.18 0.18 0.18 0.17 0.16 0.16 0.15 0.15 0.15 0.15 0.15 0.16 0.16 0.15 0.15 0.15 0.14 0.14 0.15 0.16 0.16 0.15 0.15 0.15 0.14 0.16 0.16 0.16 0.17 0.15 0.16 0.16 0.22 0.44 0.56 0.62 0.66 0.69 0.70 0.69 0.70 0.79 0.88 0.94
0.20 0.18 0.16 0.15 0.17 0.18 0.19 0.19 0.19 0.18 0.18 0.17 0.16 0.16 0.15 0.15 0.15 0.16 0.15 0.15 0.16 0.15 0.15 0.16 0.15 0.14 0.15 0.15 0.14 0.14 0.14 0.14 0.13 0.14 0.13 0.13 0.14 0.12 0.13 0.14 0.15 0.26 0.45 0.56 0.62 0.66 0.68 0.70 0.68 0.68 0.79 0.88
0.20 0.20 0.17 0.17 0.16 0.18 0.18 0.19 0.19 0.19 0.19 0.18 0.17 0.16 0.15 0.15 0.16 0.16 0.15 0.15 0.15 0.16 0.16 0.15 0.15 0.15 0.15 0.16 0.16 0.15 0.13 0.14 0.14 0.13 0.13 0.13 0.13 0.12 0.12 0.13 0.13 0.16 0.30 0.46 0.55 0.61 0.65 0.67 0.68 0.66 0.70 0.81
0.22 0.21 0.19 0.18 0.18 0.18 0.18 0.20 0.19 0.19 0.19 0.18 0.18 0.17 0.16 0.16 0.17 0.17 0.16 0.15 0.15 0.15 0.15 0.16 0.16 0.16 0.15 0.15 0.15 0.15 0.14 0.13 0.13 0.14 0.13 0.13 0.12 0.12 0.12 0.12 0.12 0.13 0.19 0.34 0.46 0.54 0.60 0.64 0.67 0.68 0.67 0.73
0.23 0.23 0.21 0.20 0.19 0.19 0.18 0.20 0.20 0.19 0.19 0.18 0.18 0.18 0.18 0.17 0.17 0.16 0.16 0.16 0.16 0.15 0.16 0.16 0.16 0.16 0.16 0.16 0.15 0.15 0.14 0.14 0.13 0.13 0.13 0.13 0.12 0.12 0.12 0.12 0.12 0.13 0.15 0.25 0.37 0.46 0.54 0.59 0.63 0.66 0.67 0.68
0.25 0.23 0.22 0.21 0.21 0.19 0.18 0.20 0.20 0.19 0.19 0.19 0.19 0.19 0.18 0.17 0.16 0.16 0.16 0.16 0.16 0.16 0.16 0.16 0.16 0.16 0.16 0.16 0.15 0.15 0.14 0.14 0.13 0.13 0.13 0.13 0.12 0.12 0.11 0.12 0.12 0.12 0.13 0.18 0.28 0.38 0.47 0.55 0.59 0.63 0.66 0.67
0.25 0.24 0.23 0.22 0.22 0.21 0.19 0.20 0.19 0.19 0.20 0.20 0.19 0.19 0.18 0.18 0.16 0.16 0.16 0.16 0.15 0.16 0.16 0.16 0.17 0.17 0.16 0.16 0.15 0.15 0.15 0.14 0.14 0.13 0.13 0.13 0.13 0.12 0.12 0.11 0.11 0.12 0.12 0.14 0.23 0.30 0.40 0.49 0.55 0.59 0.63 0.66
0.25 0.23 0.23 0.22 0.22 0.21 0.20 0.20 0.19 0.20 0.20 0.20 0.20 0.19 0.19 0.18 0.16 0.16 0.17 0.16 0.15 0.16 0.16 0.17 0.17 0.17 0.16 0.17 0.16 0.15 0.15 0.14 0.14 0.13 0.13 0.13 0.13 0.12 0.12 0.12 0.11 0.11 0.12 0.12 0.18 0.25 0.33 0.42 0.50 0.55 0.59 0.63
0.24 0.23 0.22 0.23 0.22 0.21 0.21 0.20 0.20 0.20 0.20 0.20 0.20 0.19 0.19 0.19 0.17 0.16 0.16 0.16 0.16 0.15 0.16 0.17 0.17 0.17 0.17 0.16 0.16 0.15 0.15 0.15 0.14 0.14 0.13 0.13 0.13 0.13 0.12 0.12 0.11 0.11 0.11 0.11 0.14 0.21 0.28 0.37 0.44 0.52 0.55 0.59
0.24 0.23 0.22 0.22 0.22 0.22 0.21 0.21 0.20 0.20 0.19 0.19 0.20 0.20 0.20 0.19 0.18 0.17 0.17 0.17 0.16 0.16 0.16 0.16 0.17 0.17 0.16 0.16 0.16 0.16 0.15 0.15 0.15 0.14 0.13 0.13 0.13 0.13 0.12 0.12 0.12 0.11 0.11 0.11 0.12 0.18 0.23 0.30 0.39 0.46 0.52 0.55
0.24 0.23 0.22 0.22 0.23 0.22 0.22 0.21 0.20 0.20 0.19 0.19 0.20 0.20 0.20 0.20 0.18 0.17 0.17 0.18 0.17 0.16 0.16 0.16 0.16 0.16 0.16 0.16 0.16 0.16 0.16 0.15 0.15 0.15 0.14 0.14 0.14 0.14 0.13 0.12 0.12 0.12 0.11 0.11 0.11 0.15 0.19 0.25 0.33 0.42 0.47 0.51
0.24 0.24 0.24 0.23 0.23 0.23 0.23 0.21 0.20 0.19 0.19 0.19 0.20 0.20 0.21 0.20 0.19 0.17 0.16 0.17 0.17 0.16 0.16 0.16 0.16 0.15 0.15 0.15 0.16 0.16 0.16 0.16 0.15 0.15 0.14 0.14 0.14 0.14 0.13 0.13 0.12 0.12 0.12 0.11 0.11 0.14 0.17 0.20 0.27 0.37 0.43 0.47
0.24 0.24 0.25 0.25 0.24 0.24 0.23 0.22 0.20 0.20 0.20 0.20 0.20 0.20 0.20 0.20 0.19 0.18 0.17 0.17 0.17 0.17 0.16 0.15 0.16 0.15 0.15 0.15 0.16 0.16 0.16 0.15 0.15 0.14 0.14 0.14 0.14 0.13 0.13 0.13 0.12 0.12 0.11 0.11 0.11 0.12 0.15 0.17 0.23 0.31 0.38 0.43
0.24 0.25 0.26 0.25 0.25 0.24 0.24 0.22 0.21 0.20 0.20 0.19 0.19 0.19 0.19 0.19 0.19 0.18 0.17 0.17 0.17 0.16 0.16 0.15 0.15 0.15 0.15 0.16 0.16 0.16 0.15 0.15 0.15 0.14 0.14 0.14 0.13 0.13 0.13 0.13 0.13 0.12 0.11 0.11 0.10 0.10 0.13 0.15 0.19 0.26 0.34 0.39
0.26 0.26 0.26 0.26 0.25 0.24 0.25 0.23 0.21 0.20 0.19 0.19 0.19 0.19 0.19 0.19 0.19 0.18 0.18 0.18 0.18 0.17 0.16 0.15 0.15 0.15 0.15 0.16 0.16 0.15 0.16 0.15 0.15 0.14 0.14 0.14 0.14 0.13 0.13 0.13 0.12 0.13 0.11 0.11 0.10 0.10 0.11 0.14 0.17 0.21 0.29 0.35
0.26 0.26 0.25 0.25 0.25 0.25 0.25 0.23 0.22 0.21 0.20 0.19 0.18 0.18 0.18 0.19 0.19 0.19 0.19 0.19 0.17 0.16 0.16 0.15 0.15 0.15 0.16 0.16 0.15 0.15 0.15 0.15 0.15 0.14 0.14 0.14 0.14 0.14 0.13 0.13 0.12 0.12 0.12 0.11 0.10 0.10 0.10 0.12 0.15 0.19 0.26 0.32
0.26 0.26 0.26 0.26 0.25 0.25 0.24 0.23 0.22 0.21 0.19 0.18 0.18 0.18 0.18 0.19 0.19 0.19 0.19 0.18 0.17 0.16 0.16 0.15 0.15 0.16 0.16 0.15 0.15 0.15 0.15 0.14 0.14 0.14 0.14 0.13 0.13 0.13 0.13 0.12 0.12 0.12 0.11 0.11 0.10 0.10 0.11 0.11 0.14 0.17 0.23 0.29
0.27 0.27 0.26 0.26 0.25 0.25 0.24 0.23 0.22 0.21 0.19 0.19 0.18 0.18 0.19 0.19 0.19 0.19 0.20 0.19 0.18 0.17 0.16 0.15 0.15 0.15 0.15 0.15 0.15 0.14 0.14 0.14 0.14 0.14 0.14 0.13 0.13 0.13 0.13 0.13 0.13 0.12 0.11 0.11 0.11 0.11 0.12 0.12 0.13 0.16 0.21 0.27
0.28 0.27 0.26 0.25 0.24 0.24 0.24 0.23 0.22 0.22 0.20 0.19 0.18 0.19 0.19 0.19 0.19 0.19 0.20 0.19 0.18 0.17 0.16 0.15 0.15 0.15 0.16 0.15 0.15 0.14 0.14 0.14 0.14 0.13 0.13 0.13 0.13 0.12 0.13 0.13 0.13 0.13 0.12 0.12 0.12 0.11 0.12 0.12 0.13 0.15 0.19 0.24
0.28 0.26 0.25 0.25 0.24 0.23 0.23 0.22 0.22 0.21 0.20 0.20 0.19 0.19 0.19 0.19 0.19 0.20 0.20 0.20 0.19 0.17 0.17 0.16 0.15 0.15 0.15 0.15 0.15 0.14 0.14 0.14 0.14 0.14 0.13 0.13 0.12 0.12 0.12 0.12 0.12 0.13 0.13 0.11 0.10 0.11 0.10 0.11 0.12 0.15 0.19 0.24
0.28 0.27 0.26 0.24 0.24 0.23 0.23 0.22 0.22 0.22 0.22 0.20 0.20 0.20 0.20 0.19 0.20 0.20 0.20 0.20 0.19 0.18 0.17 0.16 0.15 0.15 0.15 0.15 0.15 0.14 0.14 0.15 0.14 0.14 0.13 0.12 0.12 0.12 0.12 0.11 0.12 0.13 0.12 0.10 0.10 0.09 0.09 0.10 0.12 0.14 0.20 0.25
0.28 0.27 0.27 0.26 0.25 0.24 0.24 0.24 0.23 0.23 0.23 0.21 0.20 0.20 0.20 0.20 0.20 0.20 0.20 0.20 0.20 0.19 0.17 0.16 0.15 0.15 0.15 0.15 0.15 0.15 0.14 0.14 0.13 0.13 0.13 0.12 0.11 0.11 0.12 0.12 0.13 0.13 0.12 0.10 0.11 0.12 0.10 0.08 0.09 0.12 0.14 0.19
0.28 0.27 0.27 0.27 0.26 0.26 0.25 0.24 0.25 0.24 0.24 0.23 0.21 0.21 0.21 0.21 0.20 0.20 0.20 0.20 0.20 0.19 0.18 0.17 0.16 0.15 0.15 0.15 0.15 0.15 0.14 0.13 0.13 0.13 0.13 0.13 0.13 0.12 0.11 0.11 0.12 0.13 0.13 0.12 0.12 0.09 0.09 0.09 0.09 0.08 0.11 0.14
0.28 0.27 0.27 0.27 0.27 0.27 0.26 0.26 0.26 0.25 0.24 0.23 0.22 0.21 0.21 0.21 0.21 0.21 0.21 0.20 0.20 0.19 0.18 0.17 0.16 0.15 0.15 0.15 0.16 0.15 0.14 0.13 0.13 0.13 0.13 0.13 0.13 0.12 0.11 0.11 0.12 0.12 0.13 0.12 0.14 0.11 0.09 0.09 0.09 0.09 0.12 0.13
0.27 0.26 0.26 0.26 0.25 0.25 0.25 0.25 0.25 0.24 0.24 0.24 0.22 0.22 0.22 0.21 0.21 0.21 0.21 0.21 0.20 0.20 0.19 0.18 0.17 0.16 0.15 0.16 0.16 0.15 0.15 0.14 0.14 0.14 0.14 0.14 0.14 0.13 0.13 0.12 0.12 0.11 0.12 0.13 0.13 0.13 0.12 0.13 0.10 0.10 0.11 0.12
0.26 0.25 0.26 0.25 0.25 0.25 0.24 0.24 0.23 0.23 0.24 0.24 0.23 0.22 0.22 0.21 0.21 0.22 0.21 0.20 0.20 0.20 0.19 0.18 0.17 0.16 0.16 0.16 0.16 0.16 0.15 0.14 0.14 0.14 0.14 0.15 0.14 0.14 0.13 0.13 0.12 0.11 0.11 0.12 0.12 0.12 0.13 0.13 0.12 0.12 0.11 0.10
Wind_Speed
27 28 28 28 29 29 29 29 29 29 29 30 31 31 32 33 33 34 34 35 36 36 37 37 38 38 38 39 39 40 40 41 42 43 45 47 48 50 51 52 52 52 51 51 52 53 53 53 53 50 48 47
27 28 28 29 29 29 29 29 29 29 30 30 31 32 33 33 34 35 35 36 36 37 37 38 38 39 39 39 40 40 40 41 41 42 44 46 48 50 52 53 53 53 52 51 52 52 53 53 54 53 51 49
28 28 28 29 29 29 28 28 28 29 30 31 32 32 33 34 35 35 36 36 37 37 37 38 38 39 40 40 40 40 40 41 41 42 42 44 47 50 53 55 55 55 54 53 52 52 52 52 53 54 53 52
28 28 28 29 29 29 29 28 29 30 31 31 32 33 34 35 36 36 36 37 37 38 38 38 39 39 40 40 40 40 40 40 41 41 42 43 45 47 51 54 57 57 57 55 54 53 53 53 53 54 55 54
28 28 28 29 29 29 29 29 29 30 31 32 33 34 35 36 36 36 37 37 38 38 39 39 39 40 40 41 41 41 41 40 40 41 41 42 44 45 48 52 56 58 59 58 57 56 56 55 54 54 55 56
28 28 28 29 29 29 29 29 30 31 32 33 34 35 35 36 37 37 38 38 39 39 40 40 40 41 41 41 41 41 41 41 41 41 41 42 43 45 46 48 53 58 60 60 59 58 57 57 56 55 56 56
28 28 29 29 30 30 30 30 31 32 33 34 35 36 36 37 38 38 39 39 40 40 41 40 41 41 41 42 42 42 42 41 41 41 41 42 43 44 46 47 49 55 59 61 61 60 58 57 57 57 56 56
28 29 29 29 30 30 30 31 32 33 34 35 36 37 37 38 38 39 39 40 40 41 41 41 41 42 42 42 42 42 42 41 41 41 41 42 43 44 45 46 47 51 56 59 60 61 60 59 58 57 57 56
28 29 29 30 30 31 31 32 33 34 35 35 36 37 37 38 39 39 40 40 41 41 41 41 42 42 42 42 42 42 42 41 41 41 41 41 42 42 43 45 46 48 53 56 58 59 61 60 59 58 57 57
29 29 30 30 31 31 32 33 34 35 35 36 37 37 38 38 39 39 40 41 41 42 42 42 42 42 42 42 42 42 41 41 41 40 40 41 41 41 42 44 44 46 49 54 55 57 59 60 60 58 57 57
29 30 30 31 31 32 33 34 35 35 36 37 37 38 38 38 39 40 40 41 41 42 42 42 42 42 42 42 42 42 42 41 41 40 40 41 41 41 41 42 43 44 47 51 54 55 57 58 59 59 58 57
30 30 31 31 32 33 34 35 35 36 37 38 38 38 38 39 39 40 40 41 42 42 42 43 42 42 42 42 42 42 41 41 41 40 40 40 41 41 41 41 42 43 45 48 52 54 55 56 57 59 58 58
30 31 31 32 33 34 35 35 36 37 38 38 38 38 38 39 40 40 41 41 42 42 43 43 43 43 42 42 42 42 41 40 40 40 40 40 40 41 41 40 41 42 44 46 50 53 54 55 56 57 58 57
31 31 32 33 34 35 35 36 37 38 38 38 38 38 39 39 40 40 41 41 42 42 43 43 43 43 42 42 42 41 41 40 40 40 40 40 40 40 40 40 40 41 42 45 49 52 53 55 56 56 57 57
31 32 33 33 35 35 36 37 37 38 38 39 39 39 39 40 40 40 41 42 42 43 43 43 43 42 42 42 42 41 40 40 40 40 40 40 40 40 40 40 40 40 41 43 47 51 53 54 55 56 57 57
32 33 34 34 35 36 36 37 38 38 38 39 39 39 39 40 40 40 41 42 42 43 43 43 43 42 42 42 41 41 40 39 40 40 40 40 40 40 40 40 39 39 40 42 46 50 52 53 54 56 57 57
33 34 34 35 36 36 37 37 38 38 39 39 39 40 40 40 40 40 41 42 42 43 43 43 43 42 42 42 41 40 40 39 39 39 39 39 40 40 40 39 39 39 39 41 44 49 52 52 53 55 57 57
34 35 35 35 36 36 37 37 38 39 39 39 40 40 40 40 40 40 41 42 42 43 43 43 42 42 42 42 41 40 40 39 39 38 38 39 39 39 39 39 39 38 38 39 42 46 51 52 53 55 56 57
35 35 36 36 36 37 37 38 39 39 39 40 40 40 40 40 40 41 41 42 42 42 42 42 42 41 41 41 41 40 39 39 39 38 38 38 38 38 39 38 38 38 37 38 40 44 49 51 53 54 55 57
36 36 36 36 37 37 38 39 39 39 40 40 40 40 40 40 41 41 41 41 42 42 42 41 41 41 41 41 41 40 39 38 38 37 37 38 38 38 38 38 38 37 36 37 38 41 46 50 52 54 54 56
36 37 37 37 38 38 39 39 40 40 40 40 41 41 40 40 41 41 41 41 42 42 41 41 41 41 41 41 40 39 38 38 37 36 36 37 37 37 37 37 37 36 35 35 37 39 43 48 51 52 53 54
37 37 38 38 39 39 40 40 40 40 40 41 41 41 41 41 41 41 41 41 41 41 41 40 40 40 40 40 39 38 37 37 36 36 36 36 36 36 36 36 35 35 34 34 35 37 40 45 49 50 52 53
38 38 38 39 39 40 40 40 40 41 41 41 41 41 41 41 41 41 41 41 41 41 40 40 39 39 39 39 38 37 36 36 35 34 34 35 35 35 35 34 34 34 33 32 32 34 37 41 46 48 51 53
38 39 39 39 39 40 40 40 40 41 41 41 41 41 41 41 41 41 41 41 41 41 40 39 39 39 38 38 37 36 35 35 33 33 33 33 34 33 33 32 32 31 31 30 30 32 35 38 43 46 49 53
39 39 39 39 39 40 40 40 40 41 41 42 42 42 42 41 41 41 41 41 41 40 39 39 38 38 38 37 36 35 34 33 32 32 31 31 31 31 31 30 29 29 29 29 28 29 32 36 40 44 47 51
40 40 40 40 40 40 40 40 41 41 42 42 42 42 42 42 41 41 41 41 40 40 39 38 38 37 37 36 35 34 33 32 31 30 29 29 29 29 29 28 28 27 27 27 27 27 30 33 37 41 44 47
41 41 41 41 41 41 41 41 41 42 42 42 43 43 42 42 41 41 41 41 40 39 39 38 37 37 36 35 34 33 32 31 29 29 28 28 28 28 27 27 27 26 26 25 26 26 27 30 34 38 41 44
42 42 42 42 42 42 42 42 42 42 43 43 43 43 42 42 42 41 41 40 40 39 38 37 37 36 35 35 34 32 31 30 29 28 27 27 27 27 26 26 26 26 25 25 24 24 25 27 31 36 39 41
42 42 42 42 42 42 42 42 42 42 43 43 42 42 42 42 42 41 41 40 39 39 38 37 36 36 35 34 33 32 31 30 29 27 27 26 26 26 26 25 25 25 25 24 23 23 24 25 28 33 37 39
42 42 42 42 42 42 42 42 42 42 42 42 42 42 42 42 42 41 41 40 39 38 37 37 36 35 35 34 33 32 31 30 28 27 27 26 25 25 25 25 25 25 24 24 24 23 23 24 27 31 34 37
43 43 43 42 42 42 43 43 43 43 42 42 42 42 42 42 42 41 41 40 39 38 37 37 36 35 35 34 33 32 31 30 29 28 27 26 25 25 25 24 24 24 24 24 23 23 23 24 26 29 33 36
Wind_Direction
306 305 305 305 305 304 303 302 302 302 303 304 305 306 307 307 307 308 308 308 308 307 307 306 305 304 303 301 300 297 294 290 286 280 275 272 267 263 260 259 257 255 254 254 253 251 249 248 247 247 246 245
307 307 306 306 306 306 304 303 303 303 303 304 305 306 307 307 307 307 307 308 308 307 307 307 306 305 303 302 300 298 296 293 289 284 278 273 269 264 260 258 256 255 254 253 252 250 248 246 246 246 245 244
309 308 307 307 307 307 306 305 304 304 304 305 306 307 307 307 308 307 307 307 307 307 307 307 306 305 304 302 300 298 296 294 291 287 282 276 272 267 262 257 255 254 253 252 250 249 247 245 244 244 244 244
310 309 308 307 307 307 307 306 305 305 305 306 306 307 308 308 308 307 307 307 307 307 307 306 306 305 304 302 301 299 297 295 292 288 284 280 275 270 265 259 254 252 251 251 249 248 246 244 243 243 243 243
311 311 310 308 308 308 307 306 306 306 306 306 307 308 308 309 308 308 307 307 307 307 306 306 306 305 304 303 301 299 297 295 293 289 286 282 277 273 269 262 255 250 249 249 248 247 246 245 242 242 242 242
311 311 311 310 309 308 307 307 307 307 306 307 308 309 309 309 309 308 308 307 307 307 306 306 305 305 304 303 301 300 298 296 293 290 287 283 279 275 272 266 258 250 248 248 247 246 245 244 242 241 241 241
310 310 311 310 310 308 307 307 307 307 307 308 308 309 310 309 309 309 308 307 307 307 307 306 305 305 304 303 302 300 299 296 293 290 288 285 281 278 274 269 262 254 249 247 247 245 244 242 241 241 240 239
308 309 310 310 310 309 308 307 308 308 308 308 309 309 309 309 309 309 308 308 308 307 307 306 305 305 304 303 302 301 299 297 294 291 289 286 283 280 276 272 266 258 251 247 246 245 244 242 240 239 238 238
307 308 309 309 310 310 308 308 308 308 309 309 309 309 309 309 309 308 308 308 308 308 307 306 306 305 304 304 303 302 300 298 295 293 290 287 285 282 279 275 270 262 254 248 246 244 243 242 240 238 237 236
307 307 308 309 310 310 309 308 308 309 309 309 309 309 309 309 309 308 308 308 308 308 307 307 306 305 304 304 303 301 300 298 296 294 291 289 287 285 282 278 272 265 257 250 246 244 243 242 240 238 237 235
306 307 308 309 309 310 310 309 309 309 309 309 309 309 309 309 309 308 308 308 308 308 308 307 306 305 304 303 302 301 299 298 296 295 293 291 289 287 284 280 274 268 259 251 247 245 243 241 240 239 237 235
306 307 308 308 308 309 310 310 309 309 310 310 309 309 309 309 309 308 308 308 308 308 308 307 306 305 304 303 302 300 299 297 296 295 293 292 291 289 286 282 276 269 261 253 247 245 244 242 241 239 238 236
305 307 307 308 308 309 310 310 310 310 310 310 309 309 308 308 308 308 308 308 308 308 307 307 306 305 304 303 301 299 298 296 295 294 293 293 292 290 288 284 279 271 263 254 247 244 244 242 241 240 238 237
305 306 307 308 308 309 310 310 310 310 310 310 310 309 308 308 308 308 307 307 308 308 307 307 306 305 304 303 301 299 297 295 294 294 293 293 292 291 289 286 281 274 265 256 248 244 244 243 241 239 238 237
305 306 307 307 308 309 310 311 311 310 310 310 310 309 308 308 308 307 307 307 307 307 307 306 306 305 304 302 300 298 296 294 294 293 293 293 293 292 290 287 283 277 268 257 248 243 243 243 241 238 238 237
304 305 306 307 308 309 310 310 311 311 310 310 310 309 308 308 307 307 307 307 306 306 306 305 305 305 304 302 300 297 295 294 293 293 292 293 293 292 291 288 285 280 271 260 250 243 241 241 240 238 236 236
303 304 305 306 307 308 309 310 311 311 310 310 310 309 308 308 307 307 307 306 306 306 305 305 305 304 303 301 299 297 295 293 293 292 292 293 293 293 291 290 287 282 274 263 253 244 240 240 238 237 236 235
302 303 304 306 307 308 309 310 310 310 310 310 310 309 308 308 307 307 307 306 305 305 305 305 304 304 302 301 299 297 294 293 292 292 292 292 293 293 292 291 288 285 277 266 256 246 241 239 237 236 236 235
301 302 303 304 306 307 308 309 310 310 309 309 309 309 308 308 307 307 306 305 305 305 305 304 304 303 302 300 298 296 294 292 292 292 292 292 292 292 292 291 289 287 279 269 259 249 242 239 237 236 235 234
300 301 302 303 305 306 307 308 308 309 309 309 309 309 308 308 307 307 306 305 305 304 304 304 304 303 301 300 298 296 293 292 292 292 291 292 292 292 292 291 290 288 282 272 262 252 244 239 237 235 233 232
300 300 301 302 303 305 305 306 308 308 308 308 308 308 308 308 307 307 306 305 304 304 304 304 304 303 301 300 298 296 293 292 292 291 291 292 292 292 292 292 291 290 285 275 265 255 246 241 238 236 232 231
299 300 300 301 302 303 304 305 306 307 308 308 308 308 308 308 307 306 305 304 304 304 304 304 303 303 301 300 298 296 293 292 292 291 291 292 292 292 292 292 292 290 286 278 267 257 249 242 239 236 232 230
299 299 300 300 301 302 303 304 305 306 307 307 307 307 307 307 307 306 305 304 303 303 303 303 303 302 301 300 298 296 293 292 292 292 292 292 293 293 293 292 292 291 287 280 270 258 251 244 239 236 233 230
299 299 300 300 301 301 302 303 304 305 306 306 307 307 307 307 306 305 304 303 303 303 303 303 303 302 301 300 298 295 293 292 292 292 292 293 293 293 294 293 292 292 288 282 274 262 253 245 238 236 234 231
298 299 299 300 300 301 302 303 304 305 305 306 306 306 306 306 305 304 304 303 303 302 302 302 302 301 301 299 297 295 292 291 292 292 293 293 294 294 294 294 293 292 290 283 276 267 257 247 239 235 233 231
298 298 298 299 300 300 301 302 303 304 304 305 305 305 305 305 304 304 303 303 302 302 301 301 301 301 300 298 296 294 291 290 291 291 292 293 294 295 294 294 293 293 291 284 278 272 261 250 241 235 232 231
297 297 297 298 299 300 300 301 302 302 303 304 304 305 304 304 304 303 302 302 302 301 301 300 300 300 299 297 295 292 290 289 290 290 291 291 292 294 294 294 293 292 292 287 280 274 263 253 244 236 233 233
297 297 297 297 298 298 299 300 301 301 302 303 303 304 303 303 303 303 302 302 301 301 300 299 299 299 298 296 293 291 289 287 287 288 289 290 290 292 293 293 292 292 292 289 281 274 265 256 246 237 235 236
297 297 297 297 297 298 298 299 300 301 301 302 303 303 303 303 303 303 302 301 301 300 299 298 297 297 296 294 292 288 287 285 285 286 286 287 288 290 291 292 293 292 291 289 282 275 268 259 249 241 238 238
297 296 296 296 296 297 298 298 299 299 301 302 302 302 302 302 302 302 301 300 300 299 298 297 296 296 294 292 290 286 284 283 283 283 283 284 286 287 289 291 292 292 291 289 283 277 269 260 253 246 241 238
296 295 295 294 295 295 296 297 298 298 300 301 301 301 301 301 301 301 301 300 299 298 297 296 295 294 293 290 288 285 282 281 280 280 281 281 283 285 287 288 290 291 291 290 285 278 271 263 256 249 243 238